Find Starlink 2654

NORAD ID: 48454 Int'l Des: 2021-040 Owner: SPXS Country: US Constellation: starlink operational
LEOCIRCULAR

リアルタイム位置

3D地球を読み込み中...

Starlink 2654について

説明を読み込み中...

次回通過

Passes for default location (London). Set your location on the main map for personalized predictions.

高度履歴

Loading altitude history...

軌道要素

1 48454U 21040AC 26126.39074626 .00004761 00000-0 16503-3 0 9992
2 48454 53.1610 269.8056 0001815 85.1085 275.0124 15.31713228275526
Epoch: May 6, 2026 • Age: 7 hours

現在のステータス

高度 475.1 km
速度 7.63 km/s
衛星直下点 48.86°N, 76.37°W
打ち上げ日 May 9, 2021
運用期間 4.9 years
タイプ internet

技術仕様

分類 Payload
質量 260.00 kg
乾燥質量 248.00 kg
総質量 260.00 kg
長さ 0.20 m
直径 2.80 m
スパン 9.00 m
形状 Box + pan
製造者 SPXS
バスタイプ Starlink
フェーズステータス In Orbit
所有者/国 SPXS/US

Most Searched